>> Trackables 2014 <<
Nr. Typ Wegpunkt Name Datum
440 TB TB5MCGJ Schlump15 on tour.. 23.12.2014
439 Coin TB5T77M OceantagZ Seahorse 1 22.12.2014
438 TB TB614AB Puschos 17.12.2014
437 Coin TB23ZY2 Gecko's Cleansweep Geocoin 17.12.2014
436 Coin TB4W7TV Weihnachts-Dino 05.12.2014
435 TB TB4ZNVZ von West nach Ost mit dem neuen Auto 05.12.2014
434 TB TB341AX Traveler Chain 05.12.2014
433 TB TB3KQ1B Travel Bug Dog Tag 05.12.2014
432 TB TB2JQB0 Travel Bug Dog Tag 05.12.2014
431 Coin TB1WPBN The Hawaiian Husky Geocoin 05.12.2014
430 Coin TB4AM80 Templar Geocoin 05.12.2014
429 TB TB5K0E5 TB Cachermobil 05.12.2014
428 Coin TB5NF7K Sonic 05.12.2014
427 TB TB2A9QQ Sammy 05.12.2014
426 TB TB331NA Rothschild the Giraffe 05.12.2014
425 Coin TB4RNC2 Pure.Luck 2013 05.12.2014
424 Coin TB3YX1J Halloween 2011 - Ses sonst gibts Saures! 05.12.2014
423 Coin TB65K1T French Navigator 05.12.2014
422 Coin TB5P1J1 El Diablo (from Lanzarote to Frankfurt) 05.12.2014
421 TB TB65F02 CM von Sentahund 05.12.2014
420 Coin TB4DKTJ Capra Cygni - Netherlands 05.12.2014
419 TB TB66M42 Cachermobil - Krissi5 05.12.2014
418 TB TB5KTQF mWay - World Champion FIFA WORLD CUP 2014 05.12.2014
417 Coin TBTWVG 2006 CITO Geocoin 05.12.2014
416 TB TB2JVKC Shrek 01.12.2014
415 TB TB659XD Paulo Coelho "Der Alchimist" 01.12.2014
414 Coin TB2XC10 Lost Wheel 01.12.2014
413 TB TB5K78Y 1932 Alois Blom Reise durch die Zeit 01.12.2014
412 Coin TB10T25 Mario's 2nd Germany Geocoin 17.11.2014
411 Coin TB3CK9X sterolicoin4 13.11.2014
410 Coin TB2GTKW Pig Geocoin - Piggeldy 13.11.2014
409 Coin TB31Z9B Ornendils Geocoin Wolf back again 13.11.2014
408 TB TB4JQGF Jamie goes to America 13.11.2014
407 Coin TB2F55H GPS Maze - Discovery Museum Geocoin 13.11.2014
406 Coin TB2PRHE Die Suche nach DL1DWT 13.11.2014
405 Coin TB2V4RR Beschliesser's Celtic Cross 13.11.2014
404 TB TB2AH5K Bob the Bridgebuilder 708 USB 18.10.2014
403 Coin TB65XQ9 Switzerland Flag 14.10.2014
402 TB TB5K1P7 Star Wars Racing Imperial Bug 14.10.2014
401 TB TB49DT3 Leos LEGO TB 14.10.2014
400 Coin TB6MT1F Worldwide first GIGA Event Munich Geocoin 07.10.2014
399 Coin TB6PMMV tomatosoups Dresden Geocoin 07.10.2014
398 Coin TB6HFKN tomatosoups CARBON Geocoin 07.10.2014
397 Coin TB520AN tomatosoups Cache Counter 07.10.2014
396 Coin TB6ETER Tomatosoup's Slovak GeoAwards 2014 Geocoin 07.10.2014
395 Coin TB43D0H The Big U Geocoin 07.10.2014
394 Coin TB4T22B The Bavarian 07.10.2014
393 Coin TB6ECW7 Schweizelferich von Tomatensuppe 07.10.2014
392 TB TB49TDN Schutzengel der Cacher 07.10.2014
391 Coin TB3H1NR Race to Canary Islands 07.10.2014
390 Coin TB52F64 Project GeoGames 2012 Geocoin 07.10.2014
389 Coin TB6N0ZH Mia san GIGA herzlich! 07.10.2014
388 Coin TB68Q1P MEGA Switzerland meeting friends 2014 07.10.2014
387 Coin TB46ZCP Lizards everywhere!! 07.10.2014
386 Coin TB58Z86 Krissi5 on Tour 07.10.2014
385 TB TB5HFKR Kas Renneule 07.10.2014
384 Coin TB69X54 Jackie 07.10.2014
383 Coin TB4R57R Hunde-Fisch 07.10.2014
382 Coin TB6AZ33 HQ - Desdenchas CWG II. 07.10.2014
381 Coin TB4DTJ6 Hirschjger @ Legoguys 07.10.2014
380 Coin TB43NNG Happy Caching - Toadstool Geocoin 07.10.2014
379 Coin TB64XPJ Fluthelfer Dresden 2013 Geocoin 07.10.2014
378 Coin TB4QE8G Duckpower 07.10.2014
377 Coin TB6P1KY Cystic fibrosis No.207 07.10.2014
376 TB TB4J8J8 CS Globetrotter 07.10.2014
375 Coin TB2FP9H Bremen Geocoin 07.10.2014
374 Coin TB6PP36 Bergfex2000: kati1988.wordpress.com 07.10.2014
373 Coin TB62KRY Bergfex2000: Die Welt von kati1988 07.10.2014
372 Coin TBW4CB Bee Germany Geocoin 07.10.2014
371 Coin TB3RXVQ 10 Year Anniversary Micro Geocoin 07.10.2014
370 Coin TB4PZ4Q "Die Dosen Jger" - Krissi5 07.10.2014
369 Coin TB3WGCH Dragon Daddy! 02.10.2014
368 Coin TB641FR Toffy (Log My Dog Tag) 27.09.2014
367 Coin TB6MT65 predators Worldwide first GIGA Event Munich Geocoin 27.09.2014
366 Coin TB6PMR9 predators Dresden Geocoin 27.09.2014
365 Coin TB6G8MF predators 366 Days of Geocaching Geocoin 27.09.2014
364 Coin TB5CNDE predators 1000 Finds Geocoin 27.09.2014
363 TB TB5ZP0Z Moppihundwau 27.09.2014
362 Coin TB6MZKM Mia san GIGA herzlich! 27.09.2014
361 TB TB5WQ4Z Krissi5, Mis Sy & SWOLF 33 Cachermobil 27.09.2014
360 TB TB63D27 Kleine Meise on Tour 27.09.2014
359 TB TB5KKGW Happy Boedda 27.09.2014
358 TB TB15AZQ Gonzo 27.09.2014
357 TB TB4JRNA Glcksklee79 27.09.2014
356 Coin TB548KH Filou (Log My Dog Tag) 27.09.2014
355 TB TB2A6E7 Feest der Beschermengelen/ Guardian Angel 27.09.2014
354 TB TB48X9E Event Zwerg 27.09.2014
353 Coin TB6PMK0 Dresden Georechteck 27.09.2014
352 TB TB4XTYH dino egg 27.09.2014
351 TB TB56R2H Der Wander-Igel "Schnuffel" 27.09.2014
350 TB TB5KTDC Cargo's Koch-Schlumpf 27.09.2014
349 Coin TB6FF5W Bundespolizei Koblenz # 49 27.09.2014
348 TB TB5J7V5 Back from Mallorca 27.09.2014
347 TB TB4FPWC Travel Bug Dog Tag 20.09.2014
346 Coin TB3TDJV Der Igel und sein Frosch 20.09.2014
345 Coin TB6A9QE Aussie Flag 2 20.09.2014
344 TB TB6543R Wedding Jule and Steven 06.09.2014
343 TB TB34A7H Wandering Moose 06.09.2014
342 TB TB5ZJ9T Turtle - TukTuk 06.09.2014
341 TB TB6JFD2 Tropfens - Travel Bug 06.09.2014
340 Coin TB517D3 Tropfens - Geo Award Geocoin 500 Caches 06.09.2014
339 Coin TB607HK Tropfens - Dynamo Dresden Geocoin 06.09.2014
338 TB TB65CZ3 Tropfens - Cachemobil 06.09.2014
337 Coin TB6G80Q Tropfens - 2014 Brasilien - Weltmeister Geocoin 06.09.2014
336 TB TB54D6V Travel Bug Dog Tag 06.09.2014
335 Coin TB4YQ4K Travel Bug 013 Green boy 06.09.2014
334 Coin TB50HJX TrackMe Button Schnellschuh 06.09.2014
333 Coin TB5X59K Track Bedaius - if you can 06.09.2014
332 Coin TB6HECJ Signal Tag - Motorbike 06.09.2014
331 Coin TB2F896 Rhein-Nahe Geocoin 2008 06.09.2014
330 Coin TB64619 Raphaels - Jeep 06.09.2014
329 Coin TB53HBQ Raphaels - Feet 06.09.2014
328 Coin TB6HDZX Raphaels - Boat 06.09.2014
327 Coin TB6HE7W Raphaels - Bicycle 06.09.2014
326 TB TB61BG3 R2D2 on Tour 2014 06.09.2014
325 TB TB6BMRG Putzis Windrose on Tour 06.09.2014
324 TB TB6BMQD Putzi66 Dresden TB 06.09.2014
323 Coin TB68E08 Neues aus Geocaching 06.09.2014
322 Coin TB68CD0 Neues aus Geocaching 06.09.2014
321 Coin TB3FKZQ My Wherigo Micro Geocoin Travel Attendant 06.09.2014
320 TB TB492VD Muschen Fix 06.09.2014
319 TB TB492V2 Muschen Fax 06.09.2014
318 TB TB1D1DC Kennamatics Rapid Red Racer : SE Cachers 2008 Travel Bug Racer 06.09.2014
317 Coin TB1VVAT GW5 Sunburst Geocoin 06.09.2014
316 Coin TB6PMMG Dresden Geocoin 06.09.2014
315 TB TB5YRFQ Die Rennsemmel 06.09.2014
314 TB TB6100H Carloforte Ferry Boat 06.09.2014
313 TB TB3R9ZV Cachemobil of UlliSilke 06.09.2014
312 TB TB5KWAJ Black Velvet 06.09.2014
311 TB TB6FR8P Black Pearl 06.09.2014
310 Coin TB35HBH Bis bald im Wald Geocoin 06.09.2014
309 Coin TB6N31N Bergfex2000: Mia san GIGA herzlich! 06.09.2014
308 Coin TB6N0DY Bergfex2000: Mia san GIGA herzlich! 06.09.2014
307 TB TB66KZ3 Bedaius Cachemobil 06.09.2014
306 Coin TB6G6X6 Bedaius Cache'n'Bike Geocoin 06.09.2014
305 Coin TB5X5KM Astros Space Gate Geocoin 06.09.2014
304 Coin TB35M9H Astros Schsische Schweiz Geocoin 06.09.2014
303 Coin TB52F5M Astros Project GeoGames 2012 Geocoin 06.09.2014
302 TB TB407T3 Astros Cache Mobile: Trekking Bike 06.09.2014
301 TB TB41ZE0 Astros Cache Mobile: Schwalbe KR 51/1 06.09.2014
300 TB TB4ZNXK Astros Cache Mobile: Die Autos 06.09.2014
299 Coin TB4AM5K AS TOOK NOTHING BUT A PHOTOGRAPH 06.09.2014
298 Coin TB6MJGA 5. Schsische Geocaching Starparty 06.09.2014
297 Coin TB47W39 "Wo ist Mutti?" 06.09.2014
296 TB TB6CDQX "Shaun das Shaf" DogTag 06.09.2014
295 Coin TB3XGD0 [c_bn] Advent I Geocoin 05.09.2014
294 TB TB2T023 Zugspitze 05.09.2014
293 Coin TB5DZE7 Welsh Wanderer 2 05.09.2014
292 Coin TB52KVT Travel Fish&Tiger 05.09.2014
291 Coin TB3TCAZ Schnattergans 05.09.2014
290 TB TB6JH31 Rgen auf Reisen 05.09.2014
289 Coin TB3PDEY Nina Bell's Cache 2010 Geocoin 05.09.2014
288 TB TB56T7F Murphy Der Fotoelefant 05.09.2014
287 TB TB5J9N0 MINIonTOUR 05.09.2014
286 TB TB40F60 Jever Pils. Das beste Bier? 05.09.2014
285 Coin TB5G3BD Earth Geocoin Frodo B. 05.09.2014
284 Coin TB45740 Chrischis Celtic Geocoin 05.09.2014
283 TB TB1CVZQ Black Sheep 05.09.2014
282 TB TB1CJX6 Bear Cub's Boogie Board 05.09.2014
281 TB TB55T6K Travel Log Bug 04.09.2014
280 Coin TB648XE LITTLE NICS First 04.09.2014
279 Coin TB5DCAE Geocaching Donnersberg Event Nametag 04.09.2014
278 Coin TB5YGEC Ulis Cacher Mobil 27.08.2014
277 TB TB69GNW Tropheus85 Cachermobil 27.08.2014
276 TB TB5XYHT Team-Parosa on Tour 27.08.2014
275 TB TB5C5NT Simi3008 on Tour 27.08.2014
274 TB TB6FQP8 seker's Cachemobil 27.08.2014
273 TB TB5TGZ0 SCM - Das Suppencachermobil 27.08.2014
272 TB TB5RR0G moxx80' Vierrad-Cachemobil 27.08.2014
271 TB TB60RK6 Mondi-Bug 27.08.2014
270 TB TB5TGTH LIV 27.08.2014
269 TB TB69H0A Laguna GT 27.08.2014
268 TB TB4RW3M Kleiner Flitzer 27.08.2014
267 TB TB4WNWZ CastParo's cachermobil 27.08.2014
266 TB TB4WPAH Cachermobile Fabienne 27.08.2014
265 TB TB3RA0W Cachemobil of Gartenmautz 27.08.2014
264 TB TB5KQK9 Cache Mobil 27.08.2014
263 TB TB4WT8X c&a2006`s Cachermobile Number One - "Blacky"!!! 27.08.2014
262 Coin TB5VHKW Bergfex2000: MEGA-Phone II Geocoin 27.08.2014
261 Coin TB59560 aknolis Koala Friendship Tag 27.08.2014
260 Coin TB4RT00 aknolis Frog Schnapszahl Geocoin 27.08.2014
259 TB TB401J1 Adam's Silver Butterfly 12.08.2014
258 TB TB5KTVH THE PLSCH-TB 06.08.2014
257 Coin TB4EQ9C Beschliesser's Thueringer Bratwurst Geocoin 04.08.2014
256 Coin TB514RZ Beschliesser's Terrain 666 Geocoin 04.08.2014
255 Coin TB3WMFN Beschliesser's Nacht der Vulkane Geocoin 04.08.2014
254 Coin TB3P4ZV Beschliesser's Frankfurter Geocoin 04.08.2014
253 Coin TB18D25 Beschliesser's Compass Rose 2006 Geocoin 04.08.2014
252 TB TB56E8D Der T5er von DerNebenPaul II 30.07.2014
251 TB TB6227N Das Grundgesetz 30.07.2014
250 Coin TB12E72 The Traveler #0004 (2006 All In One) 30.07.2014
249 TB TB616JF Q-uicke-R 19.07.2014
248 TB TB69HA1 JURA 908s Stempel 19.07.2014
247 TB TB5MD2F CGN_Tuenn's Stamp 19.07.2014
246 Coin TB3J1BW EarthCache Geocoin 19.07.2014
245 TB TB6276Y Snapskfer 18.07.2014
244 TB TB212AX Der Grne Diamant 18.07.2014
243 TB TB4WVR6 Hotel room 20 15.07.2014
242 Coin TB69VYH Signal Tag - Climbing - DkF 12.07.2014
241 TB TB2J858 King of Spades TB 11.07.2014
240 TB TB2R98Y It's me 11.07.2014
239 Coin TB60K2B Hasi 2 11.07.2014
238 Coin TB2N819 Geocoin Club October 2008 Geocoin 11.07.2014
237 Coin TB4MV40 Geo-Triangle 11.07.2014
236 TB TB5HH9F Emely's kleine Weltreise 11.07.2014
235 TB TB3ZTD2 Astralroland 11.07.2014
234 TB TB5EH4Z Hoffi90 und Team Neukirch 11.07.2014
233 TB TB4X8RV Nr.3-2012 10.07.2014
232 TB TBN5G2 UZ-KEY 06.07.2014
231 TB TB4JNX9 Fr!es!an_Cr0k0d!le 06.07.2014
230 TB TB5YWT6 GLCKSSTEIN HHNERGOTT 20.06.2014
229 Coin TB4E5RN jens-kunos seahorse 20.06.2014
228 Coin TB525JK Our Traveling Lucky Charm 14.06.2014
227 TB TB4JJXZ Travel Bug Auto 12.06.2014
226 TB TB48DG2 Stein des Wassers 09.06.2014
225 TB TB4J2WW Reise-Bach 09.06.2014
224 Coin TB5VJ01 Bergfex2000: MEGA-Phone II Geocoin 09.06.2014
223 TB TB34373 VlaJu's Toyota 09.06.2014
222 Coin TB67Z4T Vinyl Record Geocoin 09.06.2014
221 Coin TB3T9VT Unter Geiern 09.06.2014
220 TB TB54RB0 Travel Bug Dog Tag 09.06.2014
219 Coin TB1G144 South Africa - Mar 07 09.06.2014
218 TB TB4XVH6 Sending my Heart Around the World 09.06.2014
217 TB TB55H60 Red cross duckling 09.06.2014
216 Coin TB23A3E Published by…Beschliesser 09.06.2014
215 Coin TB42A12 Powder Polar Bear 09.06.2014
214 Coin TB4B59N PA7FL RISK coin yellow 09.06.2014
213 Coin TB148KV NorwegenTeam Sachsentaler-GC1 09.06.2014
212 TB TB34441 Mr. ARSENAL 09.06.2014
211 Coin TB68CTK Moes Flaschenffner 09.06.2014
210 Coin TB35YZ7 Mapamundi Geographe 09.06.2014
209 TB TB48MBV Looking for parts 09.06.2014
208 TB TB27RH9 KITE Compass South TB 09.06.2014
207 Coin TB303E9 just4funAC's Family-TB-Runner 09.06.2014
206 Coin TB42ZDH Golden Snake 09.06.2014
205 Coin TB585D1 Geogames Tag 09.06.2014
204 Coin TB62T3W GCTreff.de - Die Geocacher Cummunity 09.06.2014
203 Coin TB37NRM GCC 09-2009 - Cache Eagle 09.06.2014
202 Coin TB6D6GY Easter Egg 2014 Geocoin 09.06.2014
201 Coin TB5WQZ7 DRESDEN 09.06.2014
200 Coin TB47VA9 Das doppelte Logchen: Bruder GENIE 09.06.2014
199 Coin TB50WZ5 Copa do mundo 2014 - Brasil 09.06.2014
198 Coin TB5QWTR Butterfly Monarchfalter 09.06.2014
197 Coin TB465CH BSV Adorf 09.06.2014
196 Coin TB58HC9 Beschliesser's Wolfpack Coin 09.06.2014
195 Coin TB4EY6E Beschliesser's Welsh Dragon Spinner Geocoin 09.06.2014
194 Coin TB165Q6 Beschliesser's Vogtland Geocoin 09.06.2014
193 Coin TB3Z4DH Beschliesser's Versteinerter Wald Chemnitz Geocoin 09.06.2014
192 Coin TB5PN2Z Beschliesser's Venetian Mask 2013 Geocoin 09.06.2014
191 Coin TBRZM8 Beschliesser's USA Geocoin 09.06.2014
190 Coin TB19G5B Beschliesser's Uckermark Geocoin 09.06.2014
189 Coin TBX7VG Beschliesser's Tracking Time Geocoin 09.06.2014
188 Coin TB4W9G7 Beschliesser's Tracker the Labrador Travel Tag 09.06.2014
187 Coin TB2QPX2 Beschliesser's Toadz and Gold Decypher Geocoin 09.06.2014
186 Coin TB41Q7H Beschliesser's Templar MMXI Geocoin 09.06.2014
185 Coin TB2X7ND Beschliesser's Suncompass Cachecounter 09.06.2014
184 Coin TB4TK50 Beschliesser's Seasons of Change Geocoin 09.06.2014
183 Coin TB63BJ4 Beschliesser's Saxony Thaler Geocoin 09.06.2014
182 Coin TB1QNQ3 Beschliesser's Satellite Geocoin 09.06.2014
181 Coin TB4N12T Beschliesser's Road To Warren '11 Geocoin 09.06.2014
180 Coin TB5W02T Beschliesser's Rhinoceros Geocoin 09.06.2014
179 Coin TB1XFNR Beschliesser's Punktegeier Geocoin 09.06.2014
178 Coin TB3A29N Beschliesser's Pug Geocoin 09.06.2014
177 Coin TB5W49A Beschliesser's Project Eck Event Geocoin 09.06.2014
176 Coin TB5W7A3 Beschliesser's Project Eck - Schiffs - Event Geocoin 09.06.2014
175 Coin TB5W2JQ Beschliesser's Project Eck - Meet&Greet Event Geocoin 09.06.2014
174 Coin TB697AV Beschliesser's Owl Geocoin 09.06.2014
173 Coin TB20G3Y Beschliesser's Original Bier Geocoin 09.06.2014
172 Coin TB13GN7 Beschliesser's NAVSTAR Geocoin 09.06.2014
171 Coin TBVAW5 Beschliesser's MustangJoni Geocoin 09.06.2014
170 Coin TB2F41T Beschliesser's Mini Capsule Geocoin 09.06.2014
169 Coin TB5WFTM Beschliesser's MegaBerlin 2013 Geocoin 09.06.2014
168 Coin TB4RC8G Beschliesser's Medicine Wheel Geocoin 09.06.2014
167 Coin TB459G7 Beschliesser's Mardi Gras Masquerade Geocoin 09.06.2014
166 Coin TB1FV36 Beschliesser's Magnetic Keyholder Geocoin 09.06.2014
165 Coin TB5ZQNX Beschliesser's Lost Places Geocoin 09.06.2014
164 Coin TB35BC5 Beschliesser's Lizard Gold Decypher Geocoin 09.06.2014
163 Coin TB1EPG8 Beschliesser's Leipzig Event Geocoin 09.06.2014
162 Coin TB5RH82 Beschliesser's Kleiner Fuchs Geocoin 09.06.2014
161 Coin TB1FHBZ Beschliesser's Kingfisher 2006 Geocoin 09.06.2014
160 Coin TB5GH0V Beschliesser's Geocacher-Stammtisch Geocoin 09.06.2014
159 Coin TB2WQTF Beschliesser's Friend Geocoin 09.06.2014
158 Coin TB3JRBC Beschliesser's Excalibur Geocoin 09.06.2014
157 Coin TB3DHA7 Beschliesser's Elements Compass - Earth Geocoin 09.06.2014
156 Coin TB3PM6A Beschliesser's Elements Compass - Air Geocoin 09.06.2014
155 Coin TB607M2 Beschliesser's Dynamo Dresden Geocoin 09.06.2014
154 Coin TB3PQZC Beschliesser's Dragon Spinner Geocoin 09.06.2014
153 Coin TB4QNTC Beschliesser's Dragon Legends - Drakon Geocoin 09.06.2014
152 Coin TB5NPKZ Beschliesser's Dnerstag Geocoin 09.06.2014
151 Coin TB32GHC Beschliesser's Cross Staff & Back Staff Geocoin 09.06.2014
150 Coin TB4V7BP Beschliesser's Compass Rose Geocoin 2011 09.06.2014
149 Coin TB3B2EK Beschliesser's Compass Rose 2009 Geocoin 09.06.2014
148 Coin TB2BTNT Beschliesser's Compass Rose 2008 Geocoin 09.06.2014
147 Coin TBNTVA Beschliesser's Compass Rose 2005 Geocoin 09.06.2014
146 Coin TB3CT4B Beschliesser's Coccus Geocoin 09.06.2014
145 Coin TB64V3N Beschliesser's Close Encounters of the Moose Kind Geocoin 09.06.2014
144 Coin TB45C9K Beschliesser's Chile Pepper 2010 Geocoin 09.06.2014
143 Coin TB35M9V Beschliesser's Cesk Svcarsko-Schsische Schweiz Geocoin 09.06.2014
142 Coin TB5WPMV Beschliesser's Canada 2013 Geocoin 09.06.2014
141 Coin TB5N9A1 Beschliesser's Butterfly Cacher Geocoin 09.06.2014
140 Coin TB5QXKY Beschliesser's Butterfly 2013 Geocoin 09.06.2014
139 Coin TB35VEY Beschliesser's Bismarck Geocoin 09.06.2014
138 Coin TB1N8ZM Beschliesser's Belted Kingfisher Geocoin 09.06.2014
137 Coin TB4P924 Beschliesser's BadgeGen Geocoin 09.06.2014
136 Coin TB5NK8R Beschliesser's Alien Spaceship Geocoin 09.06.2014
135 Coin TB5NEMN Beschliesser's 9-11 Commemorative Geocoin 09.06.2014
134 Coin TB47G8E Beschliesser's 500 Finds Geo-Achievement Geocoin 09.06.2014
133 Coin TB2BKCR Beschliesser's 5 Jahre Geoclub.de Geocoin 09.06.2014
132 Coin TB6EE1J Bergfex2000: Terezin Games Geocoin 09.06.2014
131 Coin TB5APMX Bergfex2000: My Personal Geocoin - Bergfex2000 09.06.2014
130 Coin TB5VJ8H Bergfex2000: MEGA-Phone II Geocoin 09.06.2014
129 Coin TB6AWV2 Bergfex2000: MallorGecko Geocoin 09.06.2014
128 Coin TB67DEW Bergfex2000: Advent Geonutshells 2013 Geocoin 09.06.2014
127 Coin TB4BQ72 Brchen Amore geht auf Reisen 09.06.2014
126 Coin TB4PXRX "Die Dosen Jger" - Bergfex2000 09.06.2014
125 Coin TB43ZP2 Beschliesser's Compass Rose 2010 Geocoin 09.06.2014
124 TB TB2TCGM TB Burg Gleiberg 04.06.2014
123 Coin TB68CT7 Neues aus Geocaching 04.06.2014
122 TB TB5VNVK Meftel 02.06.2014
121 TB TB2156G Colorado Hummer 27.05.2014
120 TB TB4Y0EH ActionBug 27.05.2014
119 TB TB2AR8Q Via Regia und Kastellan 23.05.2014
118 TB TB69GFY saphira 23.05.2014
117 Coin TB35M84 elbtaler007's Schsisch - Bhmische Schweiz 23.05.2014
116 TB TB4H8BP elbtaler007's Mbbel 23.05.2014
115 Coin TB2G724 elbtaler007's Geocacher- Ruchermann 23.05.2014
114 Coin TB5185Z elbtaler007's Find 3.000 Geocoin 23.05.2014
113 Coin TB4J010 elbtaler007's Finds 2,000 Geocoin 23.05.2014
112 Coin TB662M2 elbtaler's 4erlei Tropfen -3333 23.05.2014
111 Coin TB662K1 elbtaler's 4erlei Tropfen -1111 23.05.2014
110 Coin TB662GN elbtaler's 4erlei Tropfen - 2222 23.05.2014
109 Coin TB4RT68 elbtaler's 4erlei Tropfen 23.05.2014
108 Coin TB3K17R Garmin GPS Festival 2010 Geocoin 21.05.2014
107 TB TBM0FH 2 Square 06.05.2014
106 TB TB3KWZM Star-Bueno on Tour 01.05.2014
105 Coin TB4D0AM *Hnsel&Gretel* #02 01.05.2014
104 TB TB5KTAZ We ♥ Iceland 17.04.2014
103 TB TB3EH9T Travelshoe 17.04.2014
102 Coin TB4FNNZ Travel Pirate WannaBe 17.04.2014
101 Coin TB4HTW7 Switzerland Flag Tag 17.04.2014
100 Coin TB3JRGA Stone of Rosetta Geocoin 17.04.2014
99 Coin TB607K7 Steffel13`s Dynamo Dresden Geocoin 17.04.2014
98 Coin TB4BWWC Space. 17.04.2014
97 Coin TB43N1G Signal Travel Tag 17.04.2014
96 TB TB33GA7 Sightseeing-Duck 17.04.2014
95 Coin TB1KJP4 ShmilyNMe's Red Handed Geocoin 17.04.2014
94 Coin TB607GZ SGD ei ei ei 17.04.2014
93 Coin TB5NMRD Quackers the Duck Travel Tag 17.04.2014
92 Coin TB52F6W Project GeoGames 2012 Geocoin 17.04.2014
91 TB TB1CGM6 Pipilietko 17.04.2014
90 Coin TB5WX3H P-Chans World Geocoin 17.04.2014
89 Coin TB6D6DG P-Chans Easter Egg 2014 Geocoin 17.04.2014
88 TB TB2RVZ3 Oma Eichler 17.04.2014
87 Coin TB647BD Olu's zweite Kletter-Glckscoin 17.04.2014
86 Coin TB4Z1ER NynoBernie +freundin 17.04.2014
85 Coin TB5BM02 Mega Event Travel Tag 17.04.2014
84 Coin TB42MKX Lissy+Kobold Geocoin 17.04.2014
83 Coin TB47D3N Lighthouse Micro Geocoin 17.04.2014
82 Coin TB68DT9 Kleines Helferlein 17.04.2014
81 TB TB56V3Y Kanini's TB 17.04.2014
80 TB TBZ1JD Goofy Grape Travel Bug 17.04.2014
79 Coin TB45YKZ German Reviewer Coin 2011 - Nightshift-Edition 17.04.2014
78 Coin TB51783 Geo Award Geocoin 500 Caches 17.04.2014
77 Coin TB47A27 DLs CITO Traveler 17.04.2014
76 TB TB56MNE Der reisende (K)ehrenbrger 17.04.2014
75 Coin TB4M9X1 Denk an Deine Freunde / Remember your friends 17.04.2014
74 TB TB29GFM Chewy the Travel Bug Sheep 17.04.2014
73 Coin TB5TRME Canada Micro 2013 17.04.2014
72 Coin TB2DWWF Caching On The Moon Geocoin 17.04.2014
71 Coin TB5A2FT Cache am Sonntag Geocoin 17.04.2014
70 Coin TB4WDT6 Bummi and Vinny 17.04.2014
69 Coin TB3W7XN Brunos Stinkesocken-Castor 17.04.2014
68 TB TB11DV3 Badner Flaschenoeffner 17.04.2014
67 Coin TB4HJPN ∞Jahre Geoclub.de Geocoin 17.04.2014
66 TB TB4X6ZN Alfi went to Saxony and now back to the owner in Alsace 17.04.2014
65 TB TBZ3X2 Cornish Keyring Travel Bug Dog Tag 13.04.2014
64 TB TB50F7Y Tanzmaus2611 Cachemobil 06.04.2014
63 TB TB18QA7 Paleo Festival TB 22.03.2014
62 TB TB3M1BF Superhero Strength Reduction Ray 22.03.2014
61 TB TB4XZAA Das rmische Schwert 21.03.2014
60 Coin TB2NJ6C Borrelien 21.03.2014
59 Coin TB4NH72 Bermuda Triangle Geocoin 21.03.2014
58 Coin TB3TCPK Signals Motorrad & Zndkerze 08.03.2014
57 TB TB5908A Triton59 was here! 06.03.2014
56 TB TB4R7NG mm's - Krabbeltierchenstempel 06.03.2014
55 TB TB5MD4K Delphin_74's TB Logstempel 06.03.2014
54 TB TB214BW "G-Race 09" Christines Alter Teufel 06.03.2014
53 Coin TB5WAFR tibbiR 04.03.2014
52 TB TB56TM1 From Gibraltar to Hamburg 04.03.2014
51 TB TB4TAKN sandan's stempel Travel Bug 03.03.2014
50 Coin TB52QD4 Insel meiner Trume 03.03.2014
49 TB TB4WC1H GEO TRAVEL SHIRT 27.02.2014
48 TB TB3EAVE PikkuEnkeli - Cute Little Angel 24.02.2014
47 TB TB337PG Extraordinary Evelin Anamsunamon 18.02.2014
46 TB TB5Y1AA stemp_it 18.02.2014
45 Coin TB355V4 Made auf Reisen 17.02.2014
44 Coin TB4PP21 Enzkreis-Extrem-Coin 17.02.2014
43 Coin TB4ZBP8 TeamFlashSTL's GenussCacher 2011 Geocoin (LE) 10.02.2014
42 TB TB5HMKM Shaun das Schaf / Shaun the sheep 07.02.2014
41 TB TB4WW1G Little Pixie 07.02.2014
40 TB TB333RQ Enlarge My Territory 07.02.2014
39 Coin TB41PK3 Darkest Dreams Geocoin 07.02.2014
38 TB TB58ZXR Triton59 on tour! 05.02.2014
37 Coin TB1JD6B Compass Rose 2007 - silber 04.02.2014
36 Coin TB18CJW 2006 Alberta Geocoin 04.02.2014
35 Coin TB1DBCK 2006 Massachusetts Geocoin 04.02.2014
34 Coin TB5CTJM Jareth & Livia's big adventure 20.01.2014
33 Coin TB4C8B9 Krabbler2 20.01.2014
32 TB TB5ZP17 Katrofischs Stempel 12.01.2014
31 Coin TB4V48G UFO Artefact Geocoin 04.01.2014
30 Coin TB3TBH4 Signal's Cachemobil 04.01.2014
29 Coin TB52ERT Project GeoGames 2012 Geocoin 04.01.2014
28 Coin TB5BC1F Geocaching License for EquipmentCC's Wife 04.01.2014
27 Coin TB5BC1X Geocaching License for EquipmentCC's Man 04.01.2014
26 Coin TB2Z4BE EquipmentCC-Wife Geo-Dog Tag 2010 04.01.2014
25 TB TB2Z4BQ EquipmentCC-Man Geo-Dog Tag 2010 04.01.2014
24 Coin TB52FGJ EquipmentCC's Wife Project GeoGames 2012 Geocoin 04.01.2014
23 Coin TB45FC4 EquipmentCC's Reef Check Geocoin 2011 04.01.2014
22 Coin TB52FJV EquipmentCC's Project GeoGames 2012 Geocoin 04.01.2014
21 Coin TB44R42 EquipmentCC's Optical Illusion Geocoin 2011 04.01.2014
20 Coin TB5M72T EquipmentCC's Leucht)*(turm Geocoin 04.01.2014
19 Coin TB5A1CQ EquipmentCC's King of Mystery Geocoin 04.01.2014
18 Coin TB56DJD EquipmentCC's Hedetur TB 2013 04.01.2014
17 Coin TB5TCT6 EquipmentCC's Hedetur 2013 Personal Geocoin 04.01.2014
16 Coin TB5N369 EquipmentCC's Happy Easter Geocoin 04.01.2014
15 Coin TB4420A EquipmentCC's Compass Rose Geocoin 2010 04.01.2014
14 Coin TB481Q1 EquipmentCC's Chinese Dragon Geocoin 04.01.2014
13 Coin TB4BX8D EquipmentCC's Black Rose 2011 Geocoin 04.01.2014
12 Coin TB5NPQ1 EquipmentCC's 7.Dnerstag in Dresden Geocoin 2013 04.01.2014
11 Coin TB4DW0W EquipmentCC's 500 Finds Geo-Achievement Geocoin 04.01.2014
10 Coin TB62XHW EquipmentCC's 31 Days of Geocaching Geocoin 04.01.2014
9 Coin TB422YR EquipmentCC's 250 Finds Geo-Achievement Geocoin 04.01.2014
8 Coin TB5NZ38 Equipment's Wife Year of the Snake 2013 Geocoin 04.01.2014
7 Coin TB58AHH Equipment's Wife Year of the Dragon 2012 Coin 04.01.2014
6 Coin TB63BJZ Electoral Duke's Geocaching Thaler Geocoin 04.01.2014
5 Coin TB607G1 Dynamo Dresden Geocoin 04.01.2014
4 Coin TB2W1T9 Caching On The Moon 04.01.2014
3 TB TB3VPN6 EquipmentCC-Cachermobil 04.01.2014
2 TB TB5907R Antennes TB-Stempel 04.01.2014
1 Coin TB3FXHV EquipmentCC's Wife FrogClock Geocoin 04.01.2014